Regional Weather Roundup
Issued by NWS

Home | Current Version | Previous Version | Graphics & Text | Print | Product List | Glossary On
Versions: 1 2 3 4 5 6 7 8 9 10 11 12 13 14 15 16 17 18 19 20 21 22 23 24 25 26 27 28 29 30 31 32 33 34 35 36 37 38 39 40 41 42 43 44 45 46 47 48 49 50
000
ASUS43 KTOP 240259
RWRKS

WEATHER ROUNDUP FOR KANSAS
NATIONAL WEATHER SERVICE GOODLAND KS
900 PM CST SUN NOV 23 2014

NOTE:  "FAIR" INDICATES FEW OR NO CLOUDS BELOW 12,000 FEET WITH NO
SIGNIFICANT WEATHER AND/OR OBSTRUCTIONS TO VISIBILITY.

KSZ001>006-013>018-027>032-041>047-240400-
NORTHWEST KANSAS

CITY           SKY/WX    TMP DP  RH WIND       PRES   REMARKS
GOODLAND       CLEAR     27   8  44 NW12      29.82R WCI  17
HAYS           PTCLDY    37  18  44 NW10      29.73R WCI  30
HILL CITY      CLEAR     38  14  37 NW13      29.76R WCI  30
RUSSELL        MOCLDY    39  24  55 N13       29.69R WCI  31
$$

KSZ061>065-074>080-084>089-240400-
SOUTHWEST KANSAS

CITY           SKY/WX    TMP DP  RH WIND       PRES   REMARKS
DODGE CITY     PTCLDY    37  15  40 NW15      29.77R WCI  28
ELKHART          N/A    N/A N/A N/A MISG        N/A
GARDEN CITY    PTCLDY    33  13  43 NW9       29.81R
GREAT BEND     CLOUDY    43  21  42 NW15      29.71R
LIBERAL        MOCLDY    36  14  41 NW10      29.85R WCI  28
$$

KSZ066>073-081>083-090>101-240400-
SOUTHEAST KANSAS

CITY           SKY/WX    TMP DP  RH WIND       PRES   REMARKS
CHANUTE        LGT RAIN  42  38  85 NW21G37   29.52R
COFFEYVILLE    LGT RAIN  44  39  82 N24G37    29.53R
HUTCHINSON     CLOUDY    43  30  60 NW14      29.65R
MEDICINE LODGE   N/A     44  29  55 NW9       29.69R
NEWTON         CLOUDY    41  32  70 NW15      29.64R
PARSONS        LGT RAIN  43  40  89 NW24G35   29.53R
WICHITA INTL   CLOUDY    43  35  73 NW15      29.64R
WICHITA JABRA  CLOUDY    41  36  82 NW13      29.63R
WICHITA MCCONL CLOUDY    42  41  97 NW14      29.63R
WINFIELD       CLOUDY    43  37  79 NW16      29.64R
$$

KSZ007>012-019>026-033>040-048>060-102>105-240400-
NORTHEAST KANSAS

CITY           SKY/WX    TMP DP  RH WIND       PRES   REMARKS
CONCORDIA      CLOUDY    37  31  78 W9        29.64R
EMPORIA        CLOUDY    41  35  79 NW16G25   29.55S
LAWRENCE       CLOUDY    40  37  89 NW17      29.51S WCI  31
MANHATTAN      CLOUDY    42  34  73 NW7       29.60R
OLATHE IND     LGT RAIN  40  37  89 NW24G32   29.48R WCI  29
OLATHE EXE     LGT RAIN  40  37  89 N21G31    29.46R WCI  30
SALINA         CLOUDY    40  33  76 NW12      29.65R WCI  33
TOPEKA BILLARD CLOUDY    44  35  70 NW15G24   29.53S
TOPEKA FORBES  CLOUDY    44  34  67 N17G30    29.52R
$$



USA.gov is the U.S. government's official web portal to all federal, state and local government web resources and services.